Location: Peebles
(55.6412°N, 3.1714°W)
Time: 13:46:54
(UTC+01:00)

ISS - Pass Details

Date: 28 September 2021
Orbit: 417 x 423 km, 51.6° (Epoch: 16 October)

Event Time Altitude Azimuth Distance (km) Brightness Sun altitude
Rises 21:31:18 0° 273° (W) 2,367 1.1 -21.9°
Reaches altitude 10° 21:33:44 10° 257° (WSW) 1,502 -0.4 -22.2°
Enters shadow 21:35:32 19° 227° (SW) 1,077 -1.6 -22.5°
